Tracking 19149 objects as of 22-Apr-2018
HD Live streaming from Space Station
objects crossing your sky now

GONETS D1 5

Track GONETS D1 5 now!
10-day predictions
GONETS D1 5 is classified as:


NORAD ID: 24729
Int'l Code: 1997-006E
Perigee: 1,415.0 km
Apogee: 1,421.1 km
Inclination: 82.6 °
Period: 114.0 minutes
Semi major axis: 7789 km
RCS: 0.9139 m2 (medium)
Launch date: February 14, 1997
Source: Commonwealth of Independent States (former USSR) (CIS)
Launch site: PLESETSK MISSILE AND SPACE COMPLEX (PKMTR)
aabbcc
Your satellite tracking list
Your tracking list is empty




NASA's NSSDC Master Catalog

Two Line Element Set (TLE):
1 24729U 97006E   18112.41609140 -.00000002  00000-0 -71149-4 0  9994
2 24729  82.6008 339.6783 0003919 146.3695 213.7653 12.62913108976568
Source of the keplerian elements: AFSPC